WetterOnline ( https://www.wetteronline.de )

Wetter aktuell Sankt Peter-Ording

Aktuelles Wetter: St. Peter-Ording (11m)

6-stündlich | Neueste Meldungen
Ortszeit Temperatur Wetter
Sa, 29.01. 7:00 6.6° C bedeckt
Sa, 29.01. 1:00 5.5° C leichter Regen
Fr, 28.01. 19:00 4.8° C wolkig
Fr, 28.01. 13:00 6.0° C wolkig
Fr, 28.01. 7:00 5.3° C bewölkt
Fr, 28.01. 1:00 5.3° C wolkig
Do, 27.01. 19:00 4.9° C leicht bewölkt
Do, 27.01. 13:00 7.4° C leicht bewölkt
Ortszeit Temperatur Wetter
Sa, 29.01. 9:00 6.7° C bedeckt
Sa, 29.01. 8:50 6.7° C Dunst
Sa, 29.01. 8:40 6.7° C Dunst
Sa, 29.01. 8:30 6.8° C bedeckt
Sa, 29.01. 8:20 6.8° C Dunst
Sa, 29.01. 8:10 6.8° C Dunst
Sa, 29.01. 8:00 6.6° C bedeckt
Sa, 29.01. 7:30 6.6° C bedeckt
Sa, 29.01. 7:00 6.6° C bedeckt
Sa, 29.01. 6:30 6.5° C bedeckt
Sa, 29.01. 6:00 6.5° C bedeckt
Ortszeit Relative Feuchte Sichtweite
Sa, 29.01. 7:00 95% 5.0 km
Sa, 29.01. 1:00 92% 5.0 km
Fr, 28.01. 19:00 83% 19 km
Fr, 28.01. 13:00 77% 17 km
Fr, 28.01. 7:00 69% 14 km
Fr, 28.01. 1:00 78% 13 km
Do, 27.01. 19:00 80% 10 km
Do, 27.01. 13:00 84% 12 km
Ortszeit Relative Feuchte Sichtweite
Sa, 29.01. 9:00 96% 4.0 km
Sa, 29.01. 8:50 96% -
Sa, 29.01. 8:40 96% -
Sa, 29.01. 8:30 96% 3.9 km
Sa, 29.01. 8:20 96% -
Sa, 29.01. 8:10 95% -
Sa, 29.01. 8:00 96% 3.6 km
Sa, 29.01. 7:30 95% 5.0 km
Sa, 29.01. 7:00 95% 5.0 km
Sa, 29.01. 6:30 95% 5.0 km
Sa, 29.01. 6:00 95% 6 km
Ortszeit Niederschlagsmenge Niederschlagsart
Sa, 29.01. 7:00 2 l/m2 in 12 Std. Regen
Sa, 29.01. 1:00 0.3 l/m2 in 6 Std. Regen
Fr, 28.01. 19:00 0.0 l/m2 in 12 Std. -
Fr, 28.01. 13:00 0.0 l/m2 in 6 Std. -
Fr, 28.01. 7:00 0.4 l/m2 in 12 Std. Regen
Fr, 28.01. 1:00 0.4 l/m2 in 6 Std. Schnee, Regen
Do, 27.01. 19:00 0.1 l/m2 in 12 Std. Regen
Do, 27.01. 13:00 0.1 l/m2 in 6 Std. Regen
Ortszeit Niederschlagsmenge Niederschlagsart
Sa, 29.01. 9:00 0.0 l/m2 in 1 Std. -
Sa, 29.01. 8:50 keine Meldung -
Sa, 29.01. 8:40 keine Meldung -
Sa, 29.01. 8:30 0.0 l/m2 in 1 Std. -
Sa, 29.01. 8:20 keine Meldung -
Sa, 29.01. 8:10 keine Meldung -
Sa, 29.01. 8:00 0.0 l/m2 in 1 Std. -
Sa, 29.01. 7:30 0.0 l/m2 in 1 Std. -
Sa, 29.01. 7:00 0.0 l/m2 in 1 Std. Regen
Sa, 29.01. 6:30 0.0 l/m2 in 1 Std. -
Sa, 29.01. 6:00 0.0 l/m2 in 1 Std. -
Ortszeit Stärke Spitze Richtung
km/h Bft. km/h Grad Sektor
Sa, 29.01. 7:00 43 6 61 250° W
Sa, 29.01. 1:00 36 5 54 230° SW
Fr, 28.01. 19:00 20 4 33 230° SW
Fr, 28.01. 13:00 18 3 61 300° NW
Fr, 28.01. 7:00 43 6 76 330° NW
Fr, 28.01. 1:00 50 7 90 310° NW
Do, 27.01. 19:00 54 7 83 290° W
Do, 27.01. 13:00 39 6 63 270° W
Ortszeit Stärke Spitze Richtung
km/h Bft. km/h Grad Sektor
Sa, 29.01. 9:00 48 6 65 250° W
Sa, 29.01. 8:50 48 6 - 250° W
Sa, 29.01. 8:40 50 7 - 250° W
Sa, 29.01. 8:30 47 6 61 250° W
Sa, 29.01. 8:20 47 6 - 250° W
Sa, 29.01. 8:10 47 6 - 250° W
Sa, 29.01. 8:00 47 6 58 250° W
Sa, 29.01. 7:30 46 6 57 250° W
Sa, 29.01. 7:00 43 6 61 250° W
Sa, 29.01. 6:30 47 6 61 250° W
Sa, 29.01. 6:00 47 6 58 250° W
Ortszeit Untergrenze Bedeckung Gattung
total tief tief mittel hoch
Sa, 29.01. 7:00 180 m 8/8 8/8 - - -
Sa, 29.01. 1:00 240 m 8/8 8/8 - - -
Fr, 28.01. 19:00 990 m 7/8 3/8 - - -
Fr, 28.01. 13:00 5400 m 7/8 7/8 - - -
Fr, 28.01. 7:00 1050 m 7/8 7/8 - - -
Fr, 28.01. 1:00 1500 m 5/8 5/8 - - -
Do, 27.01. 19:00 780 m 4/8 4/8 - - -
Do, 27.01. 13:00 2100 m 2/8 2/8 - - -
Ortszeit Bedeckungsgrad in Achtel und Wolkenuntergrenze
Sa, 29.01. 9:00 8(120m)
Sa, 29.01. 8:50 8(120m)
Sa, 29.01. 8:40 8
Sa, 29.01. 8:30 8(120m)
Sa, 29.01. 8:20 8(120m)
Sa, 29.01. 8:10 8
Sa, 29.01. 8:00 8(150m)
Sa, 29.01. 7:30 8(180m)
Sa, 29.01. 7:00 8(180m)
Sa, 29.01. 6:30 8(180m)
Sa, 29.01. 6:00 8(180m)
Ortszeit Luftdruck NN (hPa) Tendenz (hPa in 3 Std.)
Sa, 29.01. 7:00 1014 - 2,9
Sa, 29.01. 1:00 1021 - 4,1
Fr, 28.01. 19:00 1028 - 1,6
Fr, 28.01. 13:00 1030 + 1,6
Fr, 28.01. 7:00 1025 + 3,4
Fr, 28.01. 1:00 1018 + 2,9
Do, 27.01. 19:00 1014 + 1,4
Do, 27.01. 13:00 1012 + 0,3
Ortszeit Luftdruck NN (hPa) Tendenz (hPa in 3 Std.)
Sa, 29.01. 9:00 1013 - 2,0
Sa, 29.01. 8:50 1013 keine Meldung
Sa, 29.01. 8:40 1013 keine Meldung
Sa, 29.01. 8:30 1013 - 2,2
Sa, 29.01. 8:20 1013 keine Meldung
Sa, 29.01. 8:10 1014 keine Meldung
Sa, 29.01. 8:00 1014 - 2,5
Sa, 29.01. 7:30 1014 - 2,3
Sa, 29.01. 7:00 1014 - 2,9
Sa, 29.01. 6:30 1015 - 3,1
Sa, 29.01. 6:00 1015 - 3,5
Ortszeit Schneehöhe (cm)
Sa, 29.01. 7:00 0
Sa, 29.01. 1:00 0
Fr, 28.01. 19:00 0
Fr, 28.01. 13:00 0
Fr, 28.01. 7:00 0
Fr, 28.01. 1:00 0
Do, 27.01. 19:00 0
Do, 27.01. 13:00 0
Ortszeit Schneehöhe (cm)
Sa, 29.01. 9:00 0
Sa, 29.01. 8:50 0
Sa, 29.01. 8:40 0
Sa, 29.01. 8:30 0
Sa, 29.01. 8:20 0
Sa, 29.01. 8:10 0
Sa, 29.01. 8:00 0
Sa, 29.01. 7:30 0
Sa, 29.01. 7:00 0
Sa, 29.01. 6:30 0
Sa, 29.01. 6:00 0
Link zu dieser Seite / Seite empfehlen

Das Wetter in ...